SCP
0 0 0 0 0 0 0 0 0 0 0 0 0 0 0 0 0 0 0 0 0 0 0 0 0 0 0 0 0 0 0 0 0 0 0 0 0 0 0 0 0 0 0
0 0 0 0 0 0 0 0 0 0 0 0 0 0 0 0 0 0 0 0 0 0 0 0 0 0 0 0 0 0 0 0 0 0 0 0 0 0 0 0 0 0 0
0 0 0 0 0 0 0 0 0 0 0 0 0 0 0 0 0 0 0 0 0 0 0 0 0 0 0 0 0 0 0 0 0 0 0 0 0 0 0 0 0 0 0
0 0 0 0 0 0 0 0 0 0 0 0 0 0 0 0 0 0 0 0 0 0 0 0 0 0 0 0 0 0 0 0 0 0 0 0 0 0 0 0 0 0 0
0 0 0 0 0 0 0 0 0 0 0 0 0 0 0 0 0 0 0 0 0 0 0 0 0 0 0 0 0 0 0 0 0 0 0 0 0 0 0 0 0 0 0
0 0 0 0 0 0 0 0 0 0 0 0 0 0 0 0 0 0 0 0 0 0 0 0 0 0 0 0 0 0 0 0 0 0 0 0 0 0 0 0 0 0 0
0 0 0 0 0 0 0 0 0 0 0 0 0 0 0 0 0 0 0 0 0 0 0 0 0 0 0 0 0 0 0 0 0 0 0 0 0 0 0 0 0 0 0
0 0 0 0 0 0 0 0 0 0 0 0 0 0 0 0 0 0 0 0 0 0 0 0 0 0 0 0 0 0 0 0 0 0 0 0 0 0 0 0 0 0 0
0 0 0 0 0 0 0 0 0 0 0 0 0 0 0 0 0 0 0 0 0 0 0 0 0 0 0 0 0 0 0 0 0 0 0 0 0 0 0 0 0 0 0
0 0 0 0 0 0 0 0 0 0 0 0 0 0 0 0 0 0 0 0 0 0 0 0 0 0 0 0 0 0 0 0 0 0 0 0 0 0 0 0 0 0 0
0 0 0 0 0 0 0 0 0 0 0 0 0 0 0 0 0 0 0 0 0 0 0 0 0 0 0 0 0 0 0 0 0 0 0 0 0 0 0 0 0 0 0
0 0 0 0 0 0 0 0 0 0 0 0 0 0 0 0 0 0 0 0 0 0 0 0 0 0 0 0 0 0 0 0 0 0 0 0 0 0 0 0 0 0 0
0 0 0 0 0 0 0 0 0 0 0 0 0 0 0 0 0 0 0 0 0 0 0 0 0 0 0 0 0 0 0 0 0 0 0 0 0 0 0 0 0 0 0
0 0 0 0 0 0 0 0 0 0 0 0 0 0 0 0 0 0 0 0 0 0 0 0 0 0 0 0 0 0 0 0 0 0 0 0 0 0 0 0 0 0 0
0 0 0 0 0 0 0 0 0 0 0 0 0 0 0 0 0 0 0 0 0 0 0 0 0 0 0 0 0 0 0 0 0 0 0 0 0 0 0 0 0 0 0
0 0 0 0 0 0 0 0 0 0 0 0 0 0 0 0 0 0 0 0 0 0 0 0 0 0 0 0 0 0 0 0 0 0 0 0 0 0 0 0 0 0 0
0 0 0 0 0 0 0 0 0 0 0 0 0 0 0 0 0 0 0 0 0 0 0 0 0 0 0 0 0 0 0 0 0 0 0 0 0 0 0 0 0 0 0
0 0 0 0 0 0 0 1 0 0 0 0 0 0 0 0 0 0 0 0 0 0 0 0 0 0 0 0 0 0 0 0 0 0 0 0 0 0 0 0 0 0 0
0 0 0 0 1 1 1 1 0 0 0 0 0 0 0 0 0 0 0 0 0 0 0 0 0 0 0 0 0 0 0 0 0 0 0 0 0 0 0 0 0 0 0
0 0 0 1 1 1 1 1 0 0 0 0 0 0 0 0 0 0 0 0 0 0 0 0 0 0 0 0 0 0 0 0 0 0 0 0 0 0 0 0 0 0 0
0 0 0 1 1 1 1 0 0 0 0 0 0 0 0 0 0 0 0 0 0 0 0 0 0 0 0 0 0 0 0 0 0 0 0 0 0 0 0 0 0 0 0
0 0 0 1 1 1 0 0 0 0 0 0 0 0 0 0 0 0 0 0 0 0 0 0 0 0 0 0 0 0 0 0 0 0 0 0 0 0 0 0 0 0 0
0 0 0 0 0 0 0 0 0 0 0 0 0 0 0 0 0 0 0 0 0 0 0 0 0 0 0 0 0 0 0 0 0 0 0 0 0 0 0 0 0 0 0
0 0 0 0 0 0 0 0 0 0 0 0 0 0 0 0 0 0 0 0 0 0 0 0 0 0 0 0 0 0 0 0 0 0 0 0 0 0 0 0 0 0 0
0 0 0 0 0 0 0 0 0 0 0 0 0 0 0 0 0 0 0 0 0 0 0 0 0 0 0 0 0 0 0 0 0 0 0 0 0 0 0 0 0 0 0
0 0 0 0 0 0 0 0 0 0 0 0 0 0 0 0 0 0 0 0 0 0 0 0 0 0 0 0 0 0 0 0 0 0 0 0 0 0 0 0 0 0 0
Wind_Speed
5 4 3 3 3 2 3 3 2 3 2 2 2 4 4 4 3 2 2 5 6 7 8 9 10 10 11 12 13 13 14 14 14 14 14 14 15 15 15 16 16 16 17
6 5 5 4 4 3 3 3 4 3 2 2 2 3 4 4 4 3 2 4 6 7 8 9 9 10 11 11 12 13 13 13 13 14 14 14 14 14 14 15 15 16 16
8 6 5 5 5 4 4 3 3 2 2 2 2 3 3 4 4 4 3 2 3 7 8 8 8 9 10 11 12 12 12 12 12 12 13 13 13 14 14 14 15 15 15
9 7 6 6 5 4 4 4 3 3 2 2 2 2 2 3 4 4 3 3 3 3 6 9 9 9 9 10 11 11 11 11 11 11 11 12 12 13 13 14 14 15 15
9 7 7 6 6 5 4 4 3 3 3 3 2 2 2 3 4 4 5 4 4 4 3 7 9 9 9 9 9 10 10 10 10 10 10 11 12 12 12 13 13 14 14
10 8 7 7 7 5 5 4 4 3 3 3 2 2 1 2 3 4 5 4 4 4 4 4 4 5 8 8 8 8 9 9 9 9 9 10 10 11 11 12 13 13 14
11 10 8 8 8 7 7 7 5 4 3 3 3 1 1 1 2 3 4 4 5 4 4 4 3 2 3 6 6 7 7 8 8 8 8 9 9 9 10 11 12 13 13
12 11 10 9 9 8 8 8 6 4 4 4 4 3 2 1 1 3 3 4 5 4 4 5 4 3 2 2 3 6 6 6 7 7 7 8 8 8 9 10 11 11 12
13 12 12 10 10 10 9 10 9 8 6 5 4 5 5 5 2 2 4 4 5 4 4 4 5 4 4 2 1 3 5 5 5 6 6 6 7 7 8 9 10 11 12
13 13 13 12 11 10 10 10 10 8 7 6 4 4 3 5 5 3 2 3 5 5 5 5 5 5 4 3 3 4 5 5 4 5 5 5 6 6 7 8 9 10 11
13 14 14 13 12 11 11 10 11 10 8 7 6 4 4 2 3 4 4 4 4 5 5 5 5 5 5 4 3 4 5 5 4 4 4 4 5 5 6 7 8 9 11
11 14 14 13 13 12 13 13 12 12 11 9 8 6 5 5 6 5 4 4 5 4 4 5 5 5 5 4 5 7 6 5 5 4 3 3 3 4 5 6 7 9 10
12 15 15 14 13 14 13 12 12 12 13 11 11 9 8 7 5 6 5 4 4 3 4 4 5 5 5 5 4 8 6 6 5 4 3 2 2 2 4 5 7 8 9
13 12 15 15 15 14 13 12 11 12 10 13 13 12 9 9 7 6 6 6 4 3 4 5 4 6 6 5 7 10 5 7 6 5 4 2 1 1 2 4 5 7 8
9 12 13 15 15 14 14 13 12 13 12 13 13 13 11 8 7 7 6 7 8 7 9 8 6 6 6 5 9 6 4 7 7 6 5 3 2 0 2 3 4 6 7
11 11 13 14 14 14 14 14 12 12 13 12 10 11 11 8 7 7 7 6 6 7 6 6 6 5 7 6 9 6 5 8 7 6 5 4 3 2 1 3 4 5 7
12 13 13 14 15 15 14 14 14 13 14 13 11 12 13 10 8 7 6 6 6 5 5 3 2 4 7 7 6 5 4 4 3 6 6 5 4 3 2 2 3 5 6
13 14 13 13 14 14 14 15 16 14 15 15 13 13 13 9 11 8 7 8 7 6 6 6 4 4 5 7 6 5 4 4 3 5 6 5 4 4 3 3 3 4 6
12 12 13 14 14 14 14 14 14 14 14 14 14 14 13 11 12 8 8 8 6 5 4 6 5 3 3 4 5 4 4 2 3 4 6 6 5 5 4 4 3 4 5
11 11 12 13 13 12 13 12 12 13 13 12 12 13 12 13 13 12 9 9 7 6 5 6 5 4 3 4 5 4 4 3 2 2 4 4 4 4 5 5 4 5 5
9 9 9 10 10 10 10 11 11 11 11 11 10 10 10 12 13 11 9 10 10 7 7 6 5 5 5 6 7 5 4 3 2 2 2 2 2 2 2 4 5 6 6
6 6 8 8 9 8 11 14 12 10 10 10 10 8 7 8 10 12 12 13 14 12 11 9 7 7 8 6 5 6 5 4 3 3 2 3 2 3 3 3 6 7 6
4 5 6 6 8 8 11 12 14 9 9 9 9 8 6 6 7 7 9 10 10 11 11 9 9 8 9 10 10 8 6 5 4 4 3 3 2 3 3 4 8 8 7
3 4 5 5 5 6 9 10 11 8 6 6 7 8 8 8 8 9 7 7 6 6 6 5 5 6 6 9 9 8 7 4 2 2 3 3 2 3 2 3 8 8 7
3 3 2 3 4 4 7 9 9 4 4 4 4 5 6 7 11 13 9 8 6 4 5 7 7 8 11 13 11 8 7 5 3 3 3 3 2 1 2 2 4 6 6
2 2 2 2 2 3 5 7 8 4 4 3 3 4 6 9 12 15 10 9 9 7 7 7 7 8 8 10 13 8 8 6 4 4 5 4 3 2 2 2 2 2 2
Wind_Direction
162 164 166 172 180 176 174 175 177 168 154 142 131 125 127 128 125 107 68 68 75 86 91 91 89 88 87 86 84 81 77 73 69 65 62 59 55 52 48 46 42 40 37
168 171 176 182 190 189 185 181 180 171 169 156 150 143 141 135 127 117 102 75 73 81 89 91 89 90 91 90 87 83 79 75 71 67 63 59 55 52 50 45 42 39 37
175 177 180 188 194 188 181 176 180 168 171 170 168 159 151 146 139 129 119 95 75 73 84 91 92 92 94 94 90 85 80 77 72 68 63 60 56 53 50 46 42 40 36
181 180 184 192 190 180 174 173 174 171 179 180 180 172 156 149 147 141 129 116 96 80 79 87 86 88 93 94 91 86 82 77 72 67 63 60 58 54 49 46 42 39 34
186 184 189 191 182 179 181 179 178 170 172 183 182 171 161 157 155 147 142 134 120 106 87 85 76 75 84 90 90 89 84 79 73 67 63 60 57 53 49 44 41 37 32
191 188 191 190 183 182 187 184 180 177 173 169 151 142 156 163 153 153 152 143 136 128 115 98 72 67 80 90 90 90 87 83 76 70 65 61 55 51 48 43 38 34 30
193 192 194 192 190 192 194 187 174 176 181 149 123 103 41 114 155 157 151 149 150 145 134 123 104 80 67 79 85 89 89 86 82 74 67 61 55 50 46 42 37 33 28
197 198 197 197 196 195 195 191 178 173 183 173 151 144 170 196 205 173 163 161 159 150 150 146 134 120 98 56 83 92 87 85 82 76 67 60 53 49 45 40 34 29 26
203 202 202 199 198 198 201 200 191 185 190 198 184 163 172 201 180 178 193 178 170 166 163 157 154 147 136 114 81 95 97 88 81 74 66 59 52 47 42 37 30 27 23
207 206 204 203 203 203 205 204 201 197 185 195 208 214 188 159 163 176 190 190 184 183 179 172 166 163 154 148 145 137 123 107 91 78 68 60 52 43 36 32 27 23 19
210 210 208 206 207 208 209 205 202 203 202 199 193 186 196 193 170 162 185 187 196 202 193 181 173 171 169 164 168 169 148 135 121 104 82 64 51 39 31 27 24 19 16
212 213 212 211 211 212 211 210 208 208 210 209 204 193 180 179 190 183 179 181 195 197 190 185 183 179 177 177 180 173 167 159 151 137 112 78 54 38 28 23 19 14 12
213 214 211 213 213 214 213 210 210 213 213 212 213 214 212 207 181 180 177 167 173 174 179 196 196 183 182 180 182 175 180 176 172 162 148 123 73 39 23 17 13 9 9
216 212 210 214 215 214 213 211 214 217 215 218 221 219 219 218 205 191 178 164 164 184 199 204 189 192 184 181 187 177 184 186 186 180 175 172 159 36 12 8 6 3 2
215 211 211 214 215 214 213 212 218 218 217 220 222 221 222 221 213 209 191 181 177 190 211 201 192 191 184 177 184 173 179 193 191 189 190 196 206 255 351 354 353 353 354
212 209 211 214 215 215 215 215 220 219 219 221 220 220 222 219 213 209 203 200 195 196 205 183 186 172 174 176 180 170 183 187 193 195 197 206 217 232 303 330 338 343 346
212 212 213 214 215 215 214 216 220 216 220 223 219 220 222 213 212 209 203 197 198 184 187 158 138 149 163 173 171 171 175 179 196 205 207 209 218 233 269 303 321 333 339
214 213 212 214 215 216 214 216 219 217 219 221 219 217 220 210 213 206 202 203 200 185 167 166 152 157 172 176 167 173 179 183 190 209 214 214 223 233 250 277 300 317 328
215 213 212 214 215 215 215 216 217 217 219 220 216 214 214 204 210 207 200 200 192 177 155 152 153 147 144 162 156 172 179 182 193 211 216 219 226 234 245 263 279 297 312
215 214 215 217 216 214 213 213 214 216 217 218 216 213 210 204 206 201 197 195 180 169 151 145 141 146 147 147 153 172 186 189 199 204 222 222 227 243 253 259 268 279 292
215 215 215 218 216 214 212 209 211 214 214 215 213 211 209 207 205 197 192 187 176 172 161 159 156 153 162 165 184 175 181 167 203 197 211 223 222 239 253 262 260 263 277
215 212 214 213 215 216 211 205 204 210 210 209 210 207 204 198 199 197 193 187 180 176 177 176 175 179 182 175 160 165 156 156 208 193 188 230 206 234 236 233 253 261 269
215 217 220 216 220 219 208 204 204 205 206 207 203 197 193 191 185 186 183 182 188 190 182 177 178 183 173 174 166 167 175 175 184 161 158 224 213 237 230 243 257 258 265
212 217 219 218 219 218 204 199 199 205 205 203 198 193 189 185 183 174 167 171 176 179 172 166 172 172 165 162 169 165 157 134 93 161 167 208 218 236 243 257 261 255 261
207 211 211 208 213 213 198 194 189 185 191 195 187 185 182 182 179 170 165 166 162 158 150 140 138 144 153 157 153 134 138 146 182 202 184 194 205 238 261 256 262 257 258
191 182 196 202 208 212 196 192 182 171 179 176 168 177 188 182 177 175 173 171 173 166 145 137 133 141 146 160 164 161 163 165 166 199 189 184 183 173 265 260 253 260 274